Weather History for Sheldon, IA

Change the Weather History Date:

Sunday, October 6, 2013

  Actual Average Record
Temperature  
Mean Temperature 44 °F -  
Max Temperature 50 °F 63 °F 90 °F (1963)
Min Temperature 39 °F 38 °F 23 °F (2012)
Degree Days  
Heating Degree Days 20    
Moisture  
Dew Point 45 °F    
Average Humidity 100    
Maximum Humidity 100    
Minimum Humidity 93    
Precipitation  
Precipitation 0.29 in - - ()
Sea Level Pressure  
Sea Level Pressure 29.82 in    
Wind  
Wind Speed 7 mph (NW)    
Max Wind Speed 21 mph    
Max Gust Speed 28 mph    
Visibility 8 miles    
Events Rain    
Averages and records for this station are not official NWS values.
T = Trace of Precipitation, MM = Missing Value Source: NWS Daily Summary

Daily Weather History Graph

Daily Weather History Graph

Search for Another Location

Airport:

Trip Planner

Search our weather history database for the weather conditions in past years. The results will help you decide how hot, cold, wet, or windy it might be!

Date:

Astronomy

Oct. 06, 2013 Rise Set
Actual Time 7:26 AM CDT 6:55 PM CDT
Civil Twilight 6:58 AM CDT 7:23 PM CDT
Nautical Twilight 6:25 AM CDT 7:56 PM CDT
Astronomical Twilight 5:52 AM CDT 8:29 PM CDT
Moon 9:16 AM CDT (10/6) 7:51 PM CDT (10/6)
Length of Visible Light 12h 25m
Length of Day
11h 28m
Waxing Crescent, 3% of the Moon is Illuminated
Oct 6
Waxing Crescent
Oct 11
First Quarter
Oct 18
Full
Oct 26
Last Quarter
Nov 3
New

Hourly Weather History & Observations

Time (CDT) Temp. Windchill Dew Point Humidity Pressure Visibility Wind Dir Wind Speed Gust Speed Precip Events Conditions
12:15 AM 42.8 °F - 42.8 °F 100% 29.74 in 10.0 mi Calm Calm - N/A   Overcast
12:35 AM 42.8 °F 40.1 °F 42.8 °F 100% 29.74 in 10.0 mi NNW 4.6 mph - N/A   Overcast
12:55 AM 42.8 °F 40.1 °F 42.8 °F 100% 29.74 in 9.0 mi North 4.6 mph - N/A Rain Light Rain
1:15 AM 42.8 °F 41.1 °F 42.8 °F 100% 29.75 in 7.0 mi North 3.5 mph - N/A Rain Light Rain
1:35 AM 42.8 °F - 42.8 °F 100% 29.75 in 10.0 mi Calm Calm - N/A Rain Light Rain
1:55 AM 42.8 °F - 42.8 °F 100% 29.76 in 9.0 mi Calm Calm - 0.02 in Rain Light Rain
2:15 AM 42.8 °F 40.1 °F 42.8 °F 100% 29.76 in 8.0 mi NW 4.6 mph - N/A Rain Light Rain
2:35 AM 42.8 °F - 42.8 °F 100% 29.76 in 8.0 mi Calm Calm - N/A Rain Light Rain
2:55 AM 42.8 °F - 42.8 °F 100% 29.75 in 10.0 mi Calm Calm - 0.04 in Rain Light Rain
3:15 AM 42.8 °F - 42.8 °F 100% 29.75 in 9.0 mi Calm Calm - N/A   Overcast
3:35 AM 42.8 °F 40.1 °F 42.8 °F 100% 29.75 in 10.0 mi WNW 4.6 mph - N/A   Overcast
3:55 AM 42.8 °F 38.6 °F 42.8 °F 100% 29.75 in 7.0 mi WNW 6.9 mph - N/A Rain Light Rain
4:15 AM 42.8 °F 38.6 °F 42.8 °F 100% 29.74 in 7.0 mi WNW 6.9 mph - N/A   Light Drizzle
4:35 AM 42.8 °F 38.0 °F 42.8 °F 100% 29.74 in 10.0 mi NW 8.1 mph - N/A Rain Light Rain
4:55 AM 42.8 °F 38.0 °F 42.8 °F 100% 29.74 in 10.0 mi NW 8.1 mph - 0.01 in   Overcast
5:15 AM 42.8 °F 38.0 °F 42.8 °F 100% 29.74 in 9.0 mi NW 8.1 mph 13.8 mph N/A Rain Light Rain
5:35 AM 42.8 °F 39.3 °F 42.8 °F 100% 29.74 in 10.0 mi NW 5.8 mph - N/A   Overcast
5:55 AM 42.8 °F 39.3 °F 42.8 °F 100% 29.75 in 10.0 mi NW 5.8 mph - N/A   Overcast
6:15 AM 42.8 °F 38.6 °F 42.8 °F 100% 29.75 in 10.0 mi West 6.9 mph - N/A   Overcast
6:35 AM 42.8 °F 38.0 °F 42.8 °F 100% 29.76 in 10.0 mi WNW 8.1 mph - N/A   Overcast
6:55 AM 44.6 °F 40.2 °F 44.6 °F 100% 29.75 in 10.0 mi WNW 8.1 mph 13.8 mph N/A   Overcast
7:15 AM 44.6 °F 40.7 °F 44.6 °F 100% 29.76 in 6.0 mi WNW 6.9 mph - N/A   Light Drizzle
7:35 AM 44.6 °F 40.2 °F 44.6 °F 100% 29.76 in 4.0 mi WNW 8.1 mph - N/A Rain Light Rain
7:55 AM 44.6 °F 40.2 °F 44.6 °F 100% 29.76 in 1.2 mi WNW 8.1 mph - N/A Rain Light Rain
8:15 AM 44.6 °F 41.4 °F 44.6 °F 100% 29.76 in 9.0 mi NW 5.8 mph - N/A   Overcast
8:35 AM 46.4 °F 41.9 °F 46.4 °F 100% 29.76 in 5.0 mi NW 9.2 mph - N/A Rain Light Rain
8:55 AM 46.4 °F 40.7 °F 46.4 °F 100% 29.76 in 7.0 mi NW 12.7 mph 20.7 mph N/A   Light Drizzle
9:15 AM 48.2 °F - 48.2 °F 100% 29.76 in 7.0 mi NW 13.8 mph - N/A Rain Light Rain
9:35 AM 46.4 °F 39.2 °F 46.4 °F 100% 29.76 in 2.0 mi NNW 18.4 mph 25.3 mph N/A Rain Light Rain
9:55 AM 46.4 °F 40.4 °F 46.4 °F 100% 29.77 in 1.0 mi NNW 13.8 mph 21.9 mph N/A Rain Light Rain
10:15 AM 46.4 °F 39.5 °F 46.4 °F 100% 29.77 in 1.8 mi NNW 17.3 mph 23.0 mph N/A   Light Drizzle
10:35 AM 48.2 °F - 48.2 °F 100% 29.77 in 10.0 mi NNW 20.7 mph - N/A   Mostly Cloudy
10:55 AM 48.2 °F - 48.2 °F 100% 29.78 in 10.0 mi NNW 17.3 mph 25.3 mph 0.01 in   Overcast
11:15 AM 48.2 °F - 48.2 °F 100% 29.78 in 10.0 mi NNW 15.0 mph 25.3 mph N/A   Overcast
11:35 AM 48.2 °F - 48.2 °F 100% 29.79 in 8.0 mi NW 13.8 mph 26.5 mph N/A Rain Light Rain
11:55 AM 46.4 °F 40.7 °F 46.4 °F 100% 29.79 in 6.0 mi NW 12.7 mph 21.9 mph N/A Rain Light Rain
12:15 PM 46.4 °F 39.8 °F 46.4 °F 100% 29.80 in 4.0 mi NW 16.1 mph 24.2 mph N/A Rain Light Rain
12:35 PM 46.4 °F 40.7 °F 46.4 °F 100% 29.80 in 3.0 mi NW 12.7 mph 21.9 mph N/A Rain Rain
12:55 PM 46.4 °F 40.4 °F 46.4 °F 100% 29.80 in 3.0 mi NW 13.8 mph 23.0 mph 0.06 in Rain Rain
1:15 PM 46.4 °F 40.1 °F 46.4 °F 100% 29.80 in 3.0 mi NNW 15.0 mph 23.0 mph N/A Rain Rain
1:35 PM 46.4 °F 40.4 °F 46.4 °F 100% 29.80 in 3.0 mi NNW 13.8 mph 20.7 mph N/A Rain Rain
1:55 PM 46.4 °F 40.4 °F 46.4 °F 100% 29.81 in 3.0 mi NNW 13.8 mph - 0.08 in Rain Heavy Rain
2:15 PM 46.4 °F 40.4 °F 46.4 °F 100% 29.81 in 3.0 mi NNW 13.8 mph 27.6 mph N/A Rain Rain
2:35 PM 46.4 °F 39.2 °F 46.4 °F 100% 29.81 in 3.0 mi NNW 18.4 mph 24.2 mph N/A Rain Rain
2:55 PM 46.4 °F 40.4 °F 46.4 °F 100% 29.81 in 2.0 mi NW 13.8 mph 23.0 mph 0.06 in Rain Rain
3:15 PM 46.4 °F 40.7 °F 46.4 °F 100% 29.82 in 4.0 mi NW 12.7 mph 23.0 mph N/A Rain Light Rain
3:35 PM 46.4 °F 39.8 °F 46.4 °F 100% 29.83 in 2.0 mi NNW 16.1 mph 26.5 mph N/A Rain Light Rain
3:55 PM 46.4 °F 40.4 °F 46.4 °F 100% 29.83 in 2.0 mi NNW 13.8 mph 25.3 mph 0.01 in Rain Light Rain
4:15 PM 46.4 °F 39.8 °F 46.4 °F 100% 29.84 in 3.0 mi NNW 16.1 mph 24.2 mph N/A Rain Light Rain
4:35 PM 46.4 °F 40.1 °F 46.4 °F 100% 29.84 in 4.0 mi NNW 15.0 mph 21.9 mph N/A Rain Light Rain
4:55 PM 48.2 °F - 48.2 °F 100% 29.85 in 9.0 mi NNW 13.8 mph 19.6 mph N/A   Mostly Cloudy
5:15 PM 48.2 °F - 48.2 °F 100% 29.86 in 10.0 mi NNW 12.7 mph 18.4 mph N/A   Overcast
5:35 PM 48.2 °F - 48.2 °F 100% 29.86 in 10.0 mi North 9.2 mph 17.3 mph N/A   Overcast
5:55 PM 50.0 °F - 50.0 °F 100% 29.86 in 10.0 mi NNW 10.4 mph 16.1 mph N/A   Overcast
6:15 PM 48.2 °F - 48.2 °F 100% 29.87 in 10.0 mi NW 5.8 mph - N/A   Scattered Clouds
6:35 PM 48.2 °F - 48.2 °F 100% 29.87 in 10.0 mi NW 4.6 mph - N/A   Scattered Clouds
6:55 PM 48.2 °F - 48.2 °F 100% 29.88 in 10.0 mi WNW 4.6 mph - N/A   Partly Cloudy
7:15 PM 46.4 °F 43.5 °F 46.4 °F 100% 29.89 in 10.0 mi WNW 5.8 mph - N/A   Clear
7:35 PM 46.4 °F 42.9 °F 46.4 °F 100% 29.90 in 10.0 mi WNW 6.9 mph - N/A   Clear
7:55 PM 46.4 °F 45.2 °F 46.4 °F 100% 29.91 in 10.0 mi NW 3.5 mph - N/A   Clear
8:15 PM 44.6 °F 41.4 °F 44.6 °F 100% 29.91 in 10.0 mi NW 5.8 mph - N/A   Clear
8:35 PM 42.8 °F 39.3 °F 42.8 °F 100% 29.92 in 10.0 mi NW 5.8 mph - N/A   Clear
8:55 PM 41.0 °F 37.1 °F 41.0 °F 100% 29.92 in 10.0 mi WNW 5.8 mph - N/A   Clear
9:15 PM 42.8 °F 38.6 °F 42.8 °F 100% 29.93 in 10.0 mi WNW 6.9 mph - N/A   Clear
9:35 PM 42.8 °F 38.6 °F 42.8 °F 100% 29.94 in 10.0 mi NW 6.9 mph - N/A   Clear
9:55 PM 42.8 °F 38.6 °F 41.0 °F 93% 29.94 in 10.0 mi WNW 6.9 mph - N/A   Clear
10:15 PM 41.0 °F 37.1 °F 41.0 °F 100% 29.94 in 10.0 mi WNW 5.8 mph - N/A   Clear
10:35 PM 41.0 °F 38.0 °F 41.0 °F 100% 29.95 in 10.0 mi WNW 4.6 mph - N/A   Clear
10:55 PM 39.2 °F 35.9 °F 39.2 °F 100% 29.96 in 10.0 mi WNW 4.6 mph - N/A   Clear
11:15 PM 39.2 °F 35.0 °F 39.2 °F 100% 29.96 in 10.0 mi WNW 5.8 mph - N/A   Clear
11:35 PM 39.2 °F 35.0 °F 39.2 °F 100% 29.96 in 10.0 mi NW 5.8 mph - N/A   Clear
11:55 PM 39.2 °F 35.0 °F 39.2 °F 100% 29.96 in 10.0 mi WNW 5.8 mph - N/A   Clear